Regional Weather Roundup
Issued by NWS

Home | Current Version | Previous Version | Graphics & Text | Print | Product List | Glossary On
Versions: 1 2 3 4 5 6 7 8 9 10 11 12 13 14 15 16 17 18 19 20 21 22 23 24 25 26 27 28 29 30 31 32 33 34 35 36 37 38 39 40 41 42 43 44 45 46 47 48 49 50
248
ASUS45 KTFX 060910
RWRMT
MONTANA REGIONAL WEATHER ROUNDUP
NATIONAL WEATHER SERVICE GREAT FALLS MT
300 AM MDT FRI MAY 06 2016

NOTE: "FAIR" INDICATES FEW OR NO CLOUDS BELOW 12000 FEET WITH NO
SIGNIFICANT WEATHER AND/OR OBSTRUCTIONS TO VISIBILITY.

MTZ001>007-043-061000-
WEST OF THE DIVIDE

CITY           SKY/WX    TMP DP  RH WIND       PRES   REMARKS
KALISPELL      CLOUDY    56  41  57 NE17      30.05R
MISSOULA       MOCLDY    53  46  77 NW3       30.04R
BUTTE          CLOUDY    50  38  63 W5        30.06R
MULLAN PASS    HVY RAIN  43  43 100 S3          N/A  FOG
ANACONDA         N/A     50  37  62 N13G21    30.07R
DEER LODGE       N/A     52  37  58 N12       30.11S
EUREKA           N/A     52  45  76 E6        30.09R
HAMILTON         N/A     57  45  62 NW8       30.00R
LIBBY            N/A     55  48  76 CALM      30.06R
PLAINS           N/A     58  54  86 NE1       30.06R
$$

MTZ008-052>055-061000-
SOUTHWEST MONTANA

CITY           SKY/WX    TMP DP  RH WIND       PRES   REMARKS
BOZEMAN        CLOUDY    52  41  66 S7        29.98R
DILLON         PTCLDY    52  38  58 NE13      29.97R
ENNIS          CLEAR     52  39  62 NE6       30.06R
THREE FORKS      N/A     57  20  24 N13       30.00R
TWIN BRIDGES     N/A     54  36  50 N25       29.95R
$$

MTZ009-010-012-014-046-048-049-054-061000-
EAST SLOPES AND CENTRAL MONTANA

CITY           SKY/WX    TMP DP  RH WIND       PRES   REMARKS
CUT BANK       CLOUDY    46  42  86 N13       30.19S
GREAT FALLS    CLOUDY    49  41  74 N10       30.17R
MALMSTROM AFB  CLOUDY    50  43  77 N10       30.18R
HELENA         CLOUDY    53  39  59 NW14      30.10R
CHOTEAU          N/A     46  45  93 N7        30.20R
CONRAD           N/A     47  47 100 NW6       30.19R
$$

MTZ011-013-016-021-045-047-050-051-061000-
NORTH CENTRAL MONTANA

CITY           SKY/WX    TMP DP  RH WIND       PRES   REMARKS
HAVRE          LGT RAIN  51  46  83 N8        30.14S
LEWISTOWN      LGT RAIN  52  43  71 CALM      30.10R
N BAR RANCH    MOCLDY    55  43  62 NW16      30.09R
$$

MTZ017>020-022>027-061-062-061000-
NORTHEAST MONTANA

CITY           SKY/WX    TMP DP  RH WIND       PRES   REMARKS
GLASGOW        CLOUDY    57  40  52 N23G32    29.94S
JORDAN           N/A     60  42  51 N24G35    29.95R
SIDNEY         CLOUDY    64  41  42 N14       29.85R
WOLF POINT     MOCLDY    61  44  53 N25G40    29.88R HAZE
POPLAR           N/A     61  45  55 N20G26    29.89R
SCOBEY           N/A     54  38  54 NW17      29.96R
$$

MTZ028>42-056>058-061000-
SOUTHCENTRAL AND SOUTHEAST MONTANA

CITY           SKY/WX    TMP DP  RH WIND       PRES   REMARKS
BAKER          MOCLDY    55  45  68 CALM      29.87R
BILLINGS       MOCLDY    63  43  48 N17       29.93R
LIVINGSTON     PTCLDY    54  40  59 N12       30.01R
MILES CITY     CLOUDY    60  47  61 N9        29.86R
EKALAKA          N/A     58  40  51 SE5       29.87F
FORSYTH          N/A     66  45  45 N6        29.87R
LAUREL           N/A     63  39  41 N12       29.94R
ROUNDUP          N/A     60  39  45 N25       29.90R
$$

REGIONAL REPORTS...DAKOTAS

CITY           SKY/WX    TMP DP  RH WIND       PRES   REMARKS
WILLISTON      CLOUDY    63  43  48 N17       29.85R
MINOT          CLOUDY    70  39  32 W10       29.74S
DICKINSON      PTCLDY    54  44  69 W8        29.79F
BEACH            N/A     57  41  54 NW10      29.88S
CROSBY           N/A     57  43  58 NW16      29.88R
TIOGA            N/A     59  41  51 N16       29.88R
WATFORD CITY     N/A     57  45  62 N7        29.83R
BISMARCK       CLEAR     49  45  86 CALM      29.78S
GRAND FORKS    CLEAR     64  48  56 SW12      29.68F
FARGO          MOCLDY    64  42  44 S9        29.75S
BUFFALO SD       N/A     66  40  38 NW5       29.79F
RAPID CITY     CLEAR     54  39  57 CALM      29.86F
$$

REGIONAL REPORTS...WYOMING/IDAHO/WASHINGTON

CITY           SKY/WX    TMP DP  RH WIND       PRES   REMARKS
GILLETTE       CLOUDY    51  39  63 SE3       29.90F
SHERIDAN       PTCLDY    50  40  68 CALM      29.89F
BUFFALO WY     CLOUDY    59  33  37 W6        29.95F
CODY           CLOUDY    61  34  36 SW8       29.95R
YELLOWSTONE LA   N/A     36  30  79 NW3       30.11F
IDAHO FALLS    CLOUDY    55  39  54 W5        29.88R
SALMON         PTCLDY    52  36  54 SE5       29.89S
BOISE          CLOUDY    58  48  69 VRB3      29.82R
SPOKANE        CLOUDY    57  49  74 NE6       29.99R
$$

REGIONAL REPORTS...ALBERTA

CITY           SKY/WX    TMP DP  RH WIND       PRES   REMARKS
EDMONTON       PTCLDY    39  21  48 W6        30.13S
CALGARY        CLEAR     43  39  87 S3        30.21R
LETHBRIDGE     CLOUDY    48  43  81 SW5       30.21R
MEDICINE HAT   CLEAR     46  41  81 N9        30.16R
WATERTON GATE    N/A     43  39  87 NW2         N/A
MILK RIVER       N/A     45  43  93 NW6         N/A
ONEFOUR          N/A     45  43  93 W14         N/A
$$

REGIONAL REPORTS...SASKATCHEWAN

CITY           SKY/WX    TMP DP  RH WIND       PRES   REMARKS
SWIFT CURRENT  CLOUDY    46  39  76 N10       30.07S
REGINA         CLEAR     50  39  66 NW16G22   29.97R
SASKATOON      PTCLDY    37  34  87 NW6       30.08R
CYPRESS HILLS    N/A     39  36  87 N12G20      N/A  WCI  32
VAL MARIE        N/A     50  39  66 N21G28      N/A
ROCKGLEN         N/A     50  41  71 N17G24      N/A
$$




USA.gov is the U.S. government's official web portal to all federal, state and local government web resources and services.